GW1476 Weather Reports


time (UTC)temp
C
wind
direction
speed
KPH
gust
KPH
rain 1hr
cm
rain 24hr
cm
rain mn
cm
humidity
%
barometer
mb
20260903145721 32 203 0.0 3.2 0.00 0.00 0.00 80 1020.6
20260903145137 32 203 0.0 3.2 0.00 0.00 0.00 80 1020.6
20260903144524 32 180 4.8 4.8 0.00 0.00 0.00 80 1020.6
20260903143911 31 23 3.2 4.8 0.00 0.00 0.00 80 1020.6
20260903143349 31 180 3.2 3.2 0.00 0.00 0.00 81 1020.6
20260903142717 31 203 0.0 1.6 0.00 0.00 0.00 83 1020.6
20260903141520 30 158 3.2 3.2 0.00 0.00 0.00 85 1020.6
20260903140339 29 68 0.0 3.2 0.00 0.00 0.00 88 1020.9
20260903135710 29 270 0.0 1.6 0.00 0.00 0.00 86 1020.9
20260903135149 28 225 1.6 3.2 0.00 0.00 0.00 89 1020.9
20260903134538 28 203 1.6 1.6 0.00 0.00 0.00 89 1020.9
20260903133922 27 225 1.6 1.6 0.00 0.00 0.00 92 1020.9
20260903132118 26 225 0.0 1.6 0.00 0.00 0.00 95 1020.9
20260903131542 26 180 0.0 0.0 0.00 0.00 0.00 95 1021.3
20260903130912 26 203 0.0 0.0 0.00 0.00 0.00 97 1021.3
20260903130309 25 180 0.0 0.0 0.00 0.00 0.00 99 1021.3
20260903125748 25 203 0.0 0.0 0.00 0.00 0.00 99 1021.6
20260903125122 24 45 0.0 0.0 0.00 0.00 0.00 99 1021.6
20260903124521 24 68 0.0 0.0 0.00 0.00 0.00 99 1021.6
20260903122715 23 158 0.0 0.0 0.00 0.00 0.00 99 1021.3
20260903122150 23 293 0.0 0.0 0.00 0.00 0.00 99 1021.3
20260903120946 22 293 0.0 1.6 0.00 0.00 0.00 99 1021.3
20260903120332 22 293 0.0 0.0 0.00 0.00 0.00 99 1021.3
20260903115741 21 270 0.0 0.0 0.00 0.00 0.00 99 1021.3
20260903115112 21 225 0.0 0.0 0.00 0.00 0.00 99 1021.3
20260903114544 21 0 0.0 0.0 0.00 0.00 0.00 99 1021.3
20260903113906 21 270 0.0 1.6 0.00 0.00 0.00 99 1020.9
20260903113322 21 203 0.0 0.0 0.00 0.00 0.00 99 1020.9
20260903112724 21 338 0.0 0.0 0.00 0.00 0.00 99 1020.9
20260903112110 21 248 0.0 0.0 0.00 0.00 0.00 99 1020.9
20260903111518 21 203 0.0 0.0 0.00 0.00 0.00 99 1020.9
20260903110912 21 270 0.0 0.0 0.00 0.00 0.00 99 1020.6
20260903110347 21 158 3.2 3.2 0.00 0.00 0.00 99 1020.6
20260903105709 21 203 1.6 1.6 0.00 0.00 0.00 99 1020.6
20260903104523 21 203 0.0 0.0 0.00 0.00 0.00 99 1020.6
20260903103932 21 203 0.0 0.0 0.00 0.00 0.00 99 1020.6
20260903102724 21 248 0.0 0.0 0.00 0.00 0.00 99 1020.6
20260903101537 21 225 0.0 0.0 0.00 0.00 0.00 99 1020.3
20260903100939 21 203 0.0 0.0 0.00 0.00 0.00 99 1020.3
20260903100316 21 203 0.0 0.0 0.00 0.00 0.00 99 1020.3
20260903095728 21 203 0.0 0.0 0.00 0.00 0.00 99 1020.3
20260903093345 21 270 0.0 0.0 0.00 0.00 0.00 99 1020.3
20260903092706 21 225 0.0 0.0 0.00 0.00 0.00 99 1020.3
20260903092127 21 225 0.0 0.0 0.00 0.00 0.00 99 1020.3
20260903091542 21 203 0.0 0.0 0.00 0.00 0.00 99 1020.3
20260903090914 21 203 0.0 0.0 0.00 0.00 0.00 99 1020.3
20260903090341 21 248 0.0 0.0 0.00 0.00 0.00 99 1020.3
20260903085130 21 203 0.0 0.0 0.00 0.00 0.00 99 1020.3
20260903084549 21 225 0.0 0.0 0.00 0.00 0.00 99 1020.3
20260903083943 21 270 0.0 0.0 0.00 0.00 0.00 99 1020.3
20260903083337 21 248 0.0 0.0 0.00 0.00 0.00 99 1020.3
20260903082709 21 248 0.0 0.0 0.00 0.00 0.00 99 1020.3
20260903080311 22 270 0.0 0.0 0.00 0.00 0.00 99 1020.3
20260903075721 22 225 0.0 0.0 0.00 0.00 0.00 99 1020.3
20260903074521 22 203 0.0 0.0 0.00 0.00 0.00 99 1020.3
20260903073915 22 248 0.0 0.0 0.00 0.00 0.00 99 1020.3
20260903073311 22 225 0.0 0.0 0.00 0.00 0.00 99 1020.3
20260903072115 22 0 0.0 0.0 0.00 0.00 0.00 99 1019.9
20260903071506 22 45 0.0 0.0 0.00 0.00 0.00 99 1019.9
20260903070338 22 225 0.0 0.0 0.00 0.00 0.00 99 1020.3
20260903064530 22 203 0.0 0.0 0.00 0.00 0.00 99 1020.3
20260903063923 22 203 0.0 3.2 0.00 0.00 0.00 99 1019.9
20260903063349 22 113 0.0 0.0 0.00 0.00 0.00 99 1019.9
20260903062738 22 270 0.0 0.0 0.00 0.00 0.00 99 1019.9
20260903061509 22 225 0.0 0.0 0.00 0.00 0.00 99 1019.9
20260903055742 22 248 0.0 0.0 0.00 0.00 0.00 99 1020.3
20260903055123 22 203 0.0 0.0 0.00 0.00 0.00 99 1020.3
20260903054511 22 203 0.0 0.0 0.00 0.00 0.00 99 1019.9
20260903053912 22 203 0.0 0.0 0.00 0.00 0.00 99 1020.3
20260903053326 22 203 0.0 0.0 0.00 0.00 0.00 99 1020.3
20260903052716 22 225 0.0 0.0 0.00 0.00 0.00 99 1020.3
20260903052140 22 225 0.0 0.0 0.00 0.00 0.00 99 1020.3
20260903051516 22 203 0.0 0.0 0.00 0.00 0.00 99 1020.3
20260903050946 22 225 0.0 0.0 0.00 0.00 0.00 99 1020.3
20260903050316 22 248 0.0 0.0 0.00 0.00 0.00 99 1020.3
20260903045748 22 293 0.0 0.0 0.00 0.00 0.00 99 1019.9
20260903045134 22 113 0.0 0.0 0.00 0.00 0.00 99 1019.9
20260903044533 23 225 0.0 0.0 0.00 0.00 0.00 99 1020.3
20260903043325 23 225 0.0 0.0 0.00 0.00 0.00 99 1020.3
20260903042124 23 270 0.0 0.0 0.00 0.00 0.00 99 1020.3
20260903041529 23 203 0.0 0.0 0.00 0.00 0.00 99 1020.3
20260903040939 23 225 0.0 0.0 0.00 0.00 0.00 99 1020.3
20260903040314 23 225 0.0 0.0 0.00 0.00 0.00 99 1020.3
20260903035743 23 225 0.0 0.0 0.00 0.00 0.00 99 1020.3
20260903035135 23 203 0.0 0.0 0.00 0.00 0.00 99 1020.3
20260903034513 23 203 0.0 0.0 0.00 0.00 0.00 99 1020.3
20260903033911 23 203 0.0 0.0 0.00 0.00 0.00 99 1020.3
20260903033312 23 203 0.0 0.0 0.00 0.00 0.00 99 1020.3
20260903032713 23 203 0.0 0.0 0.00 0.00 0.00 99 1020.3
20260903032137 23 225 0.0 0.0 0.00 0.00 0.00 99 1020.3
20260903031547 23 225 0.0 0.0 0.00 0.00 0.00 99 1020.3
20260903030924 23 225 0.0 0.0 0.00 0.00 0.00 99 1020.3
20260903030322 23 248 0.0 0.0 0.00 0.00 0.00 99 1020.3
20260903025125 23 203 0.0 0.0 0.00 0.00 0.00 99 1020.3
20260903024531 23 248 0.0 0.0 0.00 0.00 0.00 99 1020.3
20260903023946 24 270 0.0 0.0 0.00 0.00 0.00 99 1020.3
20260903023331 24 23 0.0 0.0 0.00 0.00 0.00 99 1020.3
20260903022714 24 225 0.0 0.0 0.00 0.00 0.00 99 1020.6
20260903022143 24 315 0.0 0.0 0.00 0.00 0.00 99 1020.3
20260903021535 24 225 0.0 0.0 0.00 0.00 0.00 99 1020.3
20260903020909 24 225 0.0 0.0 0.00 0.00 0.00 99 1020.3
20260903020345 24 225 0.0 0.0 0.00 0.00 0.00 99 1020.3
20260903014529 25 225 3.2 3.2 0.00 0.00 0.00 99 1020.3
20260903013913 25 225 0.0 0.0 0.00 0.00 0.00 99 1019.9
20260903012719 25 203 1.6 1.6 0.00 0.00 0.00 99 1019.9
20260903012116 25 270 0.0 1.6 0.00 0.00 0.00 99 1019.9
20260903011516 25 225 0.0 0.0 0.00 0.00 0.00 99 1019.9
20260903010932 25 225 4.8 4.8 0.00 0.00 0.00 99 1019.6
20260903010347 25 203 3.2 3.2 0.00 0.00 0.00 99 1019.9
20260903005737 25 203 3.2 3.2 0.00 0.00 0.00 99 1019.6
20260903005112 26 203 0.0 0.0 0.00 0.00 0.00 99 1019.6
20260903004510 26 225 1.6 3.2 0.00 0.00 0.00 99 1019.6
20260903003930 26 225 3.2 3.2 0.00 0.00 0.00 99 1019.6
20260903003317 26 203 4.8 4.8 0.00 0.00 0.00 99 1019.6
20260903002744 26 225 3.2 3.2 0.00 0.00 0.00 98 1019.6
20260903001505 27 225 3.2 3.2 0.00 0.00 0.00 96 1019.3
20260903000931 27 225 3.2 4.8 0.00 0.00 0.00 96 1019.3
20260903000344 27 225 0.0 1.6 0.00 0.00 0.00 94 1019.3
20260902235720 27 203 3.2 3.2 0.00 0.00 0.00 94 1019.3
20260902235116 28 180 3.2 3.2 0.00 0.00 0.00 93 1019.3
20260902234516 28 203 3.2 3.2 0.00 0.00 0.00 92 1019.3
20260902233910 28 203 3.2 3.2 0.00 0.00 0.00 89 1019.3
20260902233347 29 203 1.6 3.2 0.00 0.00 0.00 86 1019.3
20260902232721 30 225 3.2 4.8 0.00 0.00 0.00 85 1019.3
20260902231506 31 203 3.2 3.2 0.00 0.00 0.00 81 1019.3
20260902230925 32 225 3.2 4.8 0.00 0.00 0.00 75 1019.3
20260902225744 32 203 6.4 6.4 0.00 0.00 0.00 76 1019.3
20260902225108 33 180 4.8 4.8 0.00 0.00 0.00 72 1019.3
20260902224527 33 225 3.2 4.8 0.00 0.00 0.00 71 1019.3
20260902223919 34 225 4.8 6.4 0.00 0.00 0.00 70 1019.3
20260902223305 34 225 3.2 4.8 0.00 0.00 0.00 70 1019.3
20260902222712 34 180 4.8 4.8 0.00 0.00 0.00 69 1019.3
20260902222134 34 225 6.4 6.4 0.00 0.00 0.00 69 1019.3
20260902221527 35 203 6.4 6.4 0.00 0.00 0.00 67 1019.3
20260902220948 35 203 4.8 6.4 0.00 0.00 0.00 66 1019.3
20260902220308 36 158 3.2 6.4 0.00 0.00 0.00 63 1019.3
20260902215711 35 180 6.4 6.4 0.00 0.00 0.00 64 1019.3
20260902215144 40 225 4.8 6.4 0.00 0.00 0.00 55 1019.6
20260902214509 40 203 4.8 4.8 0.00 0.00 0.00 54 1019.3
20260902213936 38 0 0.0 4.8 0.00 0.00 0.00 54 1019.3
20260902213338 40 203 3.2 4.8 0.00 0.00 0.00 52 1019.3
20260902212731 38 0 1.6 4.8 0.00 0.00 0.00 52 1019.3
20260902212120 38 225 3.2 4.8 0.00 0.00 0.00 52 1019.3
20260902211528 38 45 6.4 6.4 0.00 0.00 0.00 54 1019.6
20260902210346 40 203 3.2 6.4 0.00 0.00 0.00 51 1019.6
20260902205741 40 180 1.6 3.2 0.00 0.00 0.00 51 1019.6
20260902205127 41 203 1.6 4.8 0.00 0.00 0.00 51 1019.6
20260902203932 38 225 3.2 3.2 0.00 0.00 0.00 53 1019.9
20260902203344 40 225 3.2 6.4 0.00 0.00 0.00 51 1019.6
20260902202149 40 225 0.0 0.0 0.00 0.00 0.00 54 1019.6
20260902201522 41 248 3.2 4.8 0.00 0.00 0.00 50 1019.9
20260902200942 40 45 3.2 6.4 0.00 0.00 0.00 48 1019.9
20260902200323 40 158 4.8 8.0 0.00 0.00 0.00 51 1019.9
20260902195722 38 248 0.0 4.8 0.00 0.00 0.00 51 1019.9
20260902193930 38 45 0.0 6.4 0.00 0.00 0.00 56 1020.3
20260902192730 38 203 4.8 6.4 0.00 0.00 0.00 58 1020.3
20260902192136 37 203 4.8 4.8 0.00 0.00 0.00 59 1020.3
20260902191520 39 225 6.4 6.4 0.00 0.00 0.00 54 1020.3
20260902190935 38 225 6.4 8.0 0.00 0.00 0.00 58 1020.3
20260902190313 37 158 6.4 8.0 0.00 0.00 0.00 59 1020.6
20260902185110 37 203 4.8 6.4 0.00 0.00 0.00 57 1020.6
20260902184516 40 45 1.6 1.6 0.00 0.00 0.00 50 1020.6
20260902183328 39 315 3.2 4.8 0.00 0.00 0.00 53 1020.6
20260902182735 38 135 4.8 6.4 0.00 0.00 0.00 55 1020.6
20260902182144 38 90 6.4 6.4 0.00 0.00 0.00 57 1020.6
20260902181524 36 90 3.2 3.2 0.00 0.00 0.00 60 1020.9
20260902180917 36 293 4.8 4.8 0.00 0.00 0.00 60 1020.9
20260902175722 36 23 4.8 6.4 0.00 0.00 0.00 58 1020.9
20260902175149 36 270 3.2 4.8 0.00 0.00 0.00 60 1020.9
20260902174513 36 338 4.8 4.8 0.00 0.00 0.00 58 1021.3
20260902173913 36 90 1.6 4.8 0.00 0.00 0.00 62 1021.3
20260902173324 35 23 4.8 6.4 0.00 0.00 0.00 60 1021.6
20260902172743 35 23 8.0 8.0 0.00 0.00 0.00 61 1021.6
20260902171515 35 270 3.2 3.2 0.00 0.00 0.00 61 1022.0
20260902170937 35 203 6.4 6.4 0.00 0.00 0.00 60 1022.0
20260902165724 34 0 1.6 1.6 0.00 0.00 0.00 63 1022.0
20260902165116 34 23 1.6 3.2 0.00 0.00 0.00 63 1022.0
20260902164509 34 23 8.0 8.0 0.00 0.00 0.00 63 1022.0
20260902163912 34 23 3.2 6.4 0.00 0.00 0.00 65 1022.3
20260902162746 35 225 3.2 4.8 0.00 0.00 0.00 64 1022.3
20260902161510 35 203 4.8 4.8 0.00 0.00 0.00 65 1022.6
20260902160909 35 180 3.2 4.8 0.00 0.00 0.00 68 1022.6
20260902160313 35 270 8.0 8.0 0.00 0.00 0.00 68 1022.6
20260902155109 34 203 8.0 8.0 0.00 0.00 0.00 70 1022.6
20260902154534 34 225 3.2 3.2 0.00 0.00 0.00 71 1022.6
20260902153913 33 180 3.2 4.8 0.00 0.00 0.00 74 1022.6
20260902153343 33 180 4.8 6.4 0.00 0.00 0.00 75 1022.3
20260902152731 33 135 3.2 4.8 0.00 0.00 0.00 74 1022.6
20260902152148 33 158 3.2 6.4 0.00 0.00 0.00 75 1022.6
20260902151521 32 225 3.2 3.2 0.00 0.00 0.00 78 1022.6
20260902150946 32 180 3.2 6.4 0.00 0.00 0.00 79 1022.6
20260902150321 32 225 3.2 4.8 0.00 0.00 0.00 78 1022.6